Location: Norton
(51.3000°N, 0.8167°E)
Time: 11:44:47
(UTC+00:00)

SL-4 R/B - Pass Details

Date: 03 March 2021
Orbit: 428 x 663 km, 51.6° (Epoch: 13 April)

Event Time Altitude Azimuth Distance (km) Brightness Sun altitude
Rises 18:09:44 0° 272° (W) 2,532 8.1 -5.3°
Reaches altitude 10° 18:11:57 10° 273° (W) 1,619 6.3 -5.6°
Maximum altitude 18:15:35 83° 1° (N) 456 1.6 -6.2°
Drops below altitude 10° 18:19:02 10° 91° (E) 1,543 3.6 -6.7°
Enters shadow 18:19:15 - 91° (E) 1,629 3.7 -6.8°
